User: anonymous   Login
Location: Oronoko Observatory
(41.9167°N, 86.3833°W)
Time: 04:38:53
(UTC-04:00)
Language:

PAYLOAD A - Orbit

View from above orbital plane
View from above orbital plane
View from above satellite
View from above satellite

Ground track
Ground track

The orbit data is extracted from the following two-line orbital elements,

1 27840U 03031A   17144.93959111 -.00000023 +00000-0 +62960-5 0  9997
2 27840 098.2045 143.4498 0098048 188.3967 171.5585 14.38881419729877
Epoch (UTC): 24 May 2017 22:33:00
Eccentricity: 0.0098048
inclination: 98.2045°
perigee height: 692 km
apogee height: 832 km
right ascension of ascending node: 143.4498°
argument of perigee: 188.3967°
revolutions per day: 14.38881419
mean anomaly at epoch: 171.5585°
orbit number at epoch: 72987

The dashed part of the orbit path shows where the satellite is in the earth's shadow,  

DLR